CDT,Max TemperatureF,Mean TemperatureF,Min TemperatureF,Max Dew PointF,MeanDew PointF,Min DewpointF,Max Humidity, Mean Humidity, Min Humidity, Max Sea Level PressureIn, Mean Sea Level PressureIn, Min Sea Level PressureIn, Max VisibilityMiles, Mean VisibilityMiles, Min VisibilityMiles, Max Wind SpeedMPH, Mean Wind SpeedMPH, Max Gust SpeedMPH,PrecipitationIn, CloudCover, Events, WindDirDegrees
2012-10-1,79,72,64,72,66,61,93,86,79,29.71,29.58,29.49,10,8,2,21,9,25,0.68,7,Rain-Thunderstorm,169
2012-10-2,67,61,54,61,58,52,93,86,78,30.00,29.79,29.64,10,7,2,9,3,13,0.05,7,,268
2012-10-3,76,64,52,59,54,50,100,73,46,30.19,30.10,30.01,10,6,0,10,5,13,0.00,3,Fog,126
2012-10-4,83,69,55,60,57,53,93,68,43,30.29,30.23,30.19,10,9,6,7,2,10,0.00,1,Fog,105
2012-10-5,82,69,56,62,58,54,93,68,42,30.20,30.11,30.00,10,8,4,12,4,15,0.00,1,Fog,151
2012-10-6,63,57,50,59,50,42,90,77,64,30.13,30.07,29.98,10,9,2,17,7,23,0.17,7,Rain,9
2012-10-7,63,56,48,45,41,38,80,60,39,30.21,30.14,30.09,10,10,10,16,6,20,T,7,Rain,10
2012-10-8,61,52,42,46,44,41,93,74,55,30.22,30.17,30.12,10,10,5,13,4,15,0.17,6,Rain,23
2012-10-9,67,53,38,48,42,36,96,71,45,30.19,30.13,30.05,10,6,0,7,2,9,0.00,2,Fog,166
2012-10-10,73,60,47,55,50,44,93,75,57,30.22,30.14,30.08,10,9,1,12,3,16,0.00,4,,321
2012-10-11,72,58,43,56,48,40,89,67,45,30.31,30.24,30.21,10,10,10,10,2,14,T,4,Rain,67
2012-10-12,74,67,59,66,61,55,93,83,73,30.33,30.26,30.19,10,7,1,14,3,20,0.82,7,Rain-Thunderstorm,68
2012-10-13,81,71,61,63,61,59,93,76,58,30.29,30.21,30.14,10,9,5,16,9,22,0.00,5,,131
2012-10-14,77,71,64,67,62,55,84,73,61,30.17,30.03,29.93,10,8,0,25,10,37,1.55,7,Fog-Rain-Thunderstorm,192
2012-10-15,76,63,49,63,55,44,97,67,36,30.01,29.97,29.92,10,5,0,15,5,24,0.00,2,Fog,316
2012-10-16,75,61,46,55,49,44,93,66,38,30.02,29.96,29.88,10,10,10,7,3,12,0.00,4,Fog,160
2012-10-17,77,64,50,53,49,44,96,65,33,29.90,29.81,29.67,10,10,9,18,9,25,T,2,Fog,147
2012-10-18,68,59,49,59,53,38,97,65,32,29.83,29.78,29.68,10,9,2,18,7,25,0.47,6,Rain-Thunderstorm,244
2012-10-19,70,59,48,43,40,36,77,54,30,29.86,29.79,29.74,10,9,6,21,8,26,0.00,3,,245
2012-10-20,68,56,44,46,44,40,89,66,42,30.01,29.95,29.86,10,10,10,15,4,20,0.00,1,,277
2012-10-21,79,62,45,52,48,42,93,63,32,30.15,30.10,30.01,10,10,10,9,4,13,0.00,1,,126
2012-10-22,82,68,53,55,51,48,86,59,31,30.22,30.14,30.09,10,10,10,9,4,20,0.00,2,,131
2012-10-23,80,67,53,54,51,48,86,61,35,30.18,30.11,30.07,10,10,10,12,5,15,0.00,2,,139
2012-10-24,82,66,49,55,52,46,93,65,36,30.17,30.10,30.05,10,10,7,7,3,,0.00,0,Fog,124
2012-10-25,82,68,54,59,55,52,93,67,40,30.09,30.04,29.99,10,10,9,12,5,16,0.00,2,Fog,138
2012-10-26,82,66,50,61,54,45,93,73,52,30.06,30.01,29.94,10,10,7,17,6,22,0.00,4,,342
2012-10-27,53,50,47,45,43,42,86,79,71,30.06,30.02,29.96,10,9,2,18,12,25,T,8,Rain,1
2012-10-28,62,52,42,42,36,31,71,52,32,30.06,29.98,29.94,10,10,10,22,12,29,0.00,5,,349
2012-10-29,57,47,37,31,26,17,76,49,22,30.10,30.03,29.94,10,10,10,23,11,30,0.00,0,,328
2012-10-30,58,49,39,28,25,21,64,44,24,29.93,29.88,29.82,10,10,10,26,11,36,0.00,4,,299
2012-10-31,64,48,32,35,27,21,82,51,20,29.98,29.93,29.89,10,10,10,17,5,24,0.00,2,,282